Location: Rowland
(34.5359°N, 79.2929°W)
Time: 17:15:05
(UTC+00:00)

A-11 Canister half - Pass Details

Date: 05 October 2022
Orbit: 1515 x 1684 km, 47.2° (Epoch: 06 December)

Event Time Altitude Azimuth Distance (km) Brightness Sun altitude
Rises 00:40:54 0° 230° (SW) 4,873 12.2 -22.2°
Reaches altitude 10° 00:44:04 10° 230° (SW) 3,869 11.6 -22.8°
Maximum altitude 00:53:57 87° 143° (SE) 1,602 8.9 -24.8°
Enters shadow 00:59:49 28° 55° (NE) 2,622 9.8 -26.0°
